Terug naar catalogus

SHIYAN 27B

ActiefWetenschapSSO
NORAD 63600·PAYLOAD·🇨🇳 China

Gelanceerd Apr 18, 2025 vanaf Taiyuan Satellite Launch Center

Loading…

Volgende Passages (komende 24 uur)

TLE

VersSource: Space-Track

Epoch: Sep 14, 2026, 23:53 UTC

1 63600U 25078B   26257.99545367 -.00000007  00000-0  51774-4 0  9993
2 63600  99.6955 263.8739 0001146  84.2300 275.8969 13.57248817 69712

Volg SHIYAN 27B in realtime met AllMySat

Download on the App Store